LMRST-SAT

Last updated on Sat Aug 15 2026 00:03:44 GMT+0000 (Coordinated Universal Time)

1 40971U 15058H 26226.60537238 .00001392 00000+0 13350-3 0 9991 2 40971 64.7740 93.8465 0136435 36.4369 324.5933 14.90876242122264
UTC large
Height (km)
Speed (km/s)
/
Latitude / Longitude
Inclination (degrees)
Orbital Period (minutes)
Azimuth
Elevation
Range (km)
Doppler Factor

Next 0 passes for location: London (51.5072 / 0.1276)

No passes found over London.
LMRST-SAT